Location: Willow Grove Area
(40.1625°N, 75.1113°W)
Time: 11:04:56
(UTC-05:00)

Tiangong 1 - Visible Passes

Search period start: 23 January 2018 00:00
Search period end: 02 February 2018 00:00
Orbit: 261 x 286 km, 42.8° (Epoch: 23 January)

Date Brightness Start Highest point End Pass type
(mag) Time Alt. Az. Time Alt. Az. Time Alt. Az.
23 Jan 1.1 17:56:10 10° W 17:58:36 52° SSW 18:00:59 10° SE visible
24 Jan 2.3 17:55:17 10° W 17:57:31 29° SSW 17:59:43 10° SE visible
25 Jan 3.4 17:54:27 10° WSW 17:56:13 17° SSW 17:57:58 10° SSE visible
26 Jan 4.1 17:54:31 10° SW 17:54:43 10° SW 17:54:56 10° SSW visible
